This is the latest recevied weather packets stored in our database for station/object KA3BQE-13. If no packets are shown the sender has not sent any weather packets the latest 10 day(s).
| Time | Temp. | Humidity | Pressure | Rain* | Wind** | Luminosity | Snow |
|---|---|---|---|---|---|---|---|
| 1778078208 | 10° C | 68% | 1015.9 hPa | 0 mm | - | 274 W/m² | - |
| 1778077905 | 10° C | 66% | 1015.8 hPa | 0 mm | - | 254 W/m² | - |
| 1778077604 | 10° C | 68% | 1016 hPa | 0 mm | - | 202 W/m² | - |
| 1778077301 | 10° C | 69% | 1015.9 hPa | 0 mm | - | 211 W/m² | - |
| 1778076998 | 10° C | 71% | 1016.1 hPa | 0 mm | - | 238 W/m² | - |
| 1778076697 | 10° C | 68% | 1016 hPa | 0 mm | - | 212 W/m² | - |
| 1778076394 | 9.44° C | 70% | 1016.1 hPa | 0 mm | - | 261 W/m² | - |
| 1778076091 | 9.44° C | 71% | 1016.2 hPa | 0 mm | - | 277 W/m² | - |
| 1778075788 | 8.89° C | 70% | 1016.1 hPa | 0 mm | - | 233 W/m² | - |
| 1778075484 | 8.33° C | 74% | 1015.9 hPa | 0 mm | - | 168 W/m² | - |
| 1778075181 | 8.33° C | 77% | 1016 hPa | 0 mm | - | 126 W/m² | - |
| 1778074876 | 8.33° C | 80% | 1015.9 hPa | 0 mm | - | 74 W/m² | - |
| 1778074574 | 7.78° C | 75% | 1015.9 hPa | 0 mm | - | 53 W/m² | - |
| 1778074271 | 8.33° C | 74% | 1015.9 hPa | 0 mm | - | 56 W/m² | - |
| 1778073968 | 8.33° C | 75% | 1016.2 hPa | 0 mm | - | 84 W/m² | - |
| 1778073665 | 7.78° C | 75% | 1016.3 hPa | 0 mm | - | 102 W/m² | - |
| 1778073363 | 7.78° C | 75% | 1016.2 hPa | 0 mm | - | 88 W/m² | - |
| 1778073059 | 7.78° C | 75% | 1016.1 hPa | 0 mm | - | 73 W/m² | - |
| 1778072756 | 7.78° C | 74% | 1016 hPa | 0 mm | - | 46 W/m² | - |
| 1778072453 | 7.78° C | 75% | 1015.9 hPa | 0 mm | - | 47 W/m² | - |
| 1778072152 | 7.78° C | 77% | 1015.9 hPa | 0 mm | - | 56 W/m² | - |
| 1778071849 | 7.78° C | 75% | 1015.7 hPa | 0 mm | - | 58 W/m² | - |
| 1778071546 | 7.78° C | 77% | 1015.5 hPa | 0 mm | - | 61 W/m² | - |
| 1778071244 | 7.78° C | 76% | 1015.4 hPa | 0 mm | - | 66 W/m² | - |
| 1778070942 | 7.78° C | 76% | 1015.1 hPa | 0 mm | - | 74 W/m² | - |
* Rain latest hour (hover to see other rain measurements)
** Current wind speed in m/s (hover to see current wind gust speed)